TimeCST,TemperatureF,Dew PointF,Humidity,Sea Level PressureIn,VisibilityMPH,Wind Direction,Wind SpeedMPH,Gust SpeedMPH,PrecipitationIn,Events,Conditions,WindDirDegrees,DateUTC
12:53 AM,30.9,23.0,72,30.00,10.0,WNW,4.6,-,N/A,,Overcast,290,2013-02-15 06:53:00
1:53 AM,30.9,24.1,76,30.00,10.0,West,6.9,-,N/A,,Overcast,260,2013-02-15 07:53:00
2:53 AM,30.9,25.0,79,30.01,10.0,West,5.8,-,N/A,,Overcast,260,2013-02-15 08:53:00
3:53 AM,32.0,25.0,75,30.02,10.0,WNW,5.8,-,N/A,,Overcast,300,2013-02-15 09:53:00
4:53 AM,32.0,21.9,66,30.04,10.0,NW,6.9,-,N/A,,Overcast,320,2013-02-15 10:53:00
5:53 AM,30.9,24.1,76,30.06,10.0,NW,11.5,-,N/A,,Overcast,320,2013-02-15 11:53:00
6:21 AM,30.2,26.6,86,30.04,2.5,North,11.5,16.1,0.00,Snow,Light Snow,350,2013-02-15 12:21:00
6:30 AM,30.2,26.6,86,30.05,1.8,North,13.8,19.6,0.00,Snow,Light Snow,350,2013-02-15 12:30:00
6:36 AM,30.2,26.6,86,30.05,3.0,NNW,12.7,19.6,0.00,Snow,Light Snow,340,2013-02-15 12:36:00
6:53 AM,28.9,25.0,85,30.08,8.0,NNW,9.2,18.4,0.00,Snow,Light Snow,340,2013-02-15 12:53:00
7:22 AM,28.4,24.8,86,30.08,8.0,North,12.7,-,0.00,Snow,Light Snow,350,2013-02-15 13:22:00
7:34 AM,28.4,24.8,86,30.08,2.5,North,10.4,-,0.00,Snow,Light Snow,350,2013-02-15 13:34:00
7:42 AM,28.4,24.8,86,30.09,1.2,NNW,8.1,-,0.00,Snow,Light Snow,340,2013-02-15 13:42:00
7:53 AM,28.0,24.1,85,30.12,1.5,NNW,9.2,-,0.00,Snow,Light Snow,340,2013-02-15 13:53:00
8:00 AM,28.4,24.8,86,30.10,1.8,NNW,8.1,-,0.00,Snow,Light Snow,330,2013-02-15 14:00:00
8:16 AM,26.6,24.8,93,30.10,0.8,NNW,9.2,-,0.00,Snow,Light Snow,330,2013-02-15 14:16:00
8:29 AM,26.6,23.0,86,30.11,1.0,NNW,11.5,18.4,0.00,Snow,Light Snow,330,2013-02-15 14:29:00
8:35 AM,26.6,21.2,80,30.11,2.0,NNW,9.2,17.3,0.00,Snow,Light Snow,340,2013-02-15 14:35:00
8:49 AM,26.6,21.2,80,30.11,5.0,NNW,10.4,19.6,0.00,Snow,Light Snow,340,2013-02-15 14:49:00
8:53 AM,27.0,21.0,78,30.14,4.0,NNW,11.5,18.4,0.00,Snow,Light Snow,330,2013-02-15 14:53:00
9:53 AM,27.0,18.0,69,30.16,10.0,NNW,16.1,24.2,0.00,,Mostly Cloudy,330,2013-02-15 15:53:00
10:53 AM,27.0,16.0,63,30.17,10.0,NNW,11.5,21.9,0.00,,Mostly Cloudy,340,2013-02-15 16:53:00
11:12 AM,26.6,15.8,64,30.15,10.0,North,15.0,21.9,N/A,,Scattered Clouds,360,2013-02-15 17:12:00
11:51 AM,26.6,15.8,64,30.15,10.0,NNW,11.5,18.4,N/A,,Mostly Cloudy,340,2013-02-15 17:51:00
11:53 AM,27.0,16.0,63,30.18,10.0,NNW,15.0,19.6,N/A,,Mostly Cloudy,340,2013-02-15 17:53:00
12:46 PM,28.4,15.8,59,30.14,10.0,NW,10.4,16.1,N/A,,Scattered Clouds,320,2013-02-15 18:46:00
12:53 PM,28.9,16.0,58,30.17,10.0,North,11.5,16.1,N/A,,Scattered Clouds,350,2013-02-15 18:53:00
1:53 PM,28.9,12.0,49,30.17,10.0,NNW,10.4,-,N/A,,Clear,340,2013-02-15 19:53:00
2:53 PM,30.0,10.0,43,30.17,10.0,North,10.4,-,N/A,,Clear,360,2013-02-15 20:53:00
3:53 PM,30.0,10.0,43,30.17,10.0,North,4.6,-,N/A,,Clear,10,2013-02-15 21:53:00
4:53 PM,28.0,10.0,47,30.18,10.0,Calm,Calm,-,N/A,,Clear,0,2013-02-15 22:53:00
6:53 PM,26.1,14.0,60,30.19,10.0,Calm,Calm,-,N/A,,Mostly Cloudy,0,2013-02-16 00:53:00
7:53 PM,25.0,15.1,66,30.19,10.0,Calm,Calm,-,N/A,,Overcast,0,2013-02-16 01:53:00
8:53 PM,25.0,16.0,69,30.18,10.0,Calm,Calm,-,N/A,,Overcast,0,2013-02-16 02:53:00
9:53 PM,25.0,18.0,75,30.17,8.0,WSW,4.6,-,0.00,Snow,Light Snow,240,2013-02-16 03:53:00
10:48 PM,24.8,19.4,80,30.13,2.5,WNW,6.9,-,0.00,Snow,Light Snow,290,2013-02-16 04:48:00
10:53 PM,25.0,19.9,81,30.17,2.5,NNW,5.8,-,0.00,Snow,Light Snow,340,2013-02-16 04:53:00
11:00 PM,24.8,19.4,80,30.13,4.0,NNW,6.9,-,0.00,Snow,Light Snow,340,2013-02-16 05:00:00
11:22 PM,24.8,19.4,80,30.13,1.8,NNW,4.6,-,0.00,Snow,Light Snow,330,2013-02-16 05:22:00
11:41 PM,24.8,19.4,80,30.12,3.0,NNW,4.6,-,0.00,Snow,Light Snow,330,2013-02-16 05:41:00
11:53 PM,24.1,19.0,81,30.15,7.0,NW,5.8,-,0.00,Snow,Light Snow,320,2013-02-16 05:53:00